Notices

What's New in latest Release from April 7th, 2021:

- Updated Glossary, including Speed of Maximum Gust, and Total Hourly Precipitation

- Updated national and regional climate services offices contacts and prices information

- Addition of station inventory lists for 1981-2010, 1971-2000, and 1961-1990 Normals.

If you haven't already, please take our survey and provide feedback about our website: https://eccc.sondage-survey.ca/f/LanguageSelection.aspx?s=442ca660-fcf1-47c0-95a9-59707d6fd709

Hourly Data Report for March 06, 2018

MIRAMICHI RCS
NEW BRUNSWICK

47°00'34.000" N
65°27'54.000" W
33.00 m
8100989
71744
ACQ

Download Data

Hourly Data (March 2018)
Hourly Data Report for March 6, 2018
TIME
LST
Temp Definition
°C
Dew Point Definition
°C
Rel Hum Definition
%
Precip. Amount Definition
mm

Wind Dir Definition
10's deg

Wind Spd Definition
km/h
Visibility Definition
km
Stn Press Definition
kPa
Hmdx Definition


Wind Chill Definition


Weather Definition


00:00 -0.6 -4.6 74 0.0 4 31   101.60   -7 LegendNANA
01:00 -0.7 -4.4 76 0.0 4 25   101.54   -7 LegendNANA
02:00 -1.0 -4.2 79 0.0 4 28   101.55   -8 LegendNANA
03:00 -1.5 -3.5 86 0.0 4 22   101.52   -7 LegendNANA
04:00 -1.8 -3.6 87 0.0 4 22   101.50   -8 LegendNANA
05:00 -2.0 -4.4 84 0.0 4 22   101.51   -8 LegendNANA
06:00 -2.2 -4.0 87 0.2 5 20   101.52   -8 LegendNANA
07:00 -2.4 -4.2 87 0.0 5 17   101.55   -8 LegendNANA
08:00 -2.1 -4.5 84 0.0 4 19   101.59   -8 LegendNANA
09:00 -1.8 -4.2 84 0.0 5 16   101.61   -7 LegendNANA
10:00 -1.1 -5.0 75 0.0 5 21   101.63   -7 LegendNANA
11:00 -0.9 -4.9 74 0.0 5 21   101.63   -7 LegendNANA
12:00 -0.6 -5.2 71 0.0 5 22   101.62   -6 LegendNANA
13:00 -0.3 -5.3 69 0.0 4 30   101.60   -7 LegendNANA
14:00 -0.3 -5.4 68 0.0 5 30   101.56   -7 LegendNANA
15:00 -0.4 -5.4 69 0.0 4 24   101.61   -6 LegendNANA
16:00 -0.5 -5.2 71 0.0 4 22   101.63   -6 LegendNANA
17:00 -0.8 -5.2 72 0.0 4 23   101.66   -7 LegendNANA
18:00 -1.0 -5.2 73 0.0 4 24   101.69   -7 LegendNANA
19:00 -1.1 -5.2 74 0.0 4 22   101.70   -7 LegendNANA
20:00 -1.1 -5.3 73 0.0 4 22   101.73   -7 LegendNANA
21:00 -1.2 -5.4 73 0.0 4 19   101.71   -7 LegendNANA
22:00 -1.2 -5.5 72 0.0 4 24   101.71   -7 LegendNANA
23:00 -1.2 -5.6 72 0.0 5 27   101.72   -8 LegendNANA

Notes on Data Quality.

Legend

  • E = Estimated
  • M = Missing
  • NA = Not Available*
  • [empty] = Indicates an unobserved value
Date modified: